This is the latest recevied weather packets stored in our database for station/object KB1FFS. If no packets are shown the sender has not sent any weather packets the latest 1 day(s).
| Time | Temp. | Humidity | Pressure | Rain* | Wind** | Luminosity | Snow |
|---|---|---|---|---|---|---|---|
| 1778002478 | 30° C | 60% | 1005.8 hPa | 0 mm | 0.89 m/s, 351° | 476 W/m² | - |
| 1778002175 | 30° C | 61% | 1006 hPa | 0 mm | 0.45 m/s, 3° | 695 W/m² | - |
| 1778001873 | 29.44° C | 61% | 1005.8 hPa | 0 mm | 2.24 m/s, 41° | 433 W/m² | - |
| 1778001572 | 28.89° C | 63% | 1005.8 hPa | 0 mm | 0 m/s | 407 W/m² | - |
| 1778001270 | 28.89° C | 62% | 1006 hPa | 0 mm | 0.89 m/s, 349° | 409 W/m² | - |
| 1778000966 | 28.89° C | 62% | 1005.9 hPa | 0 mm | 0.89 m/s, 347° | 375 W/m² | - |
| 1778000663 | 28.89° C | 63% | 1005.9 hPa | 0 mm | 0.45 m/s, 42° | 380 W/m² | - |
| 1778000358 | 28.89° C | 62% | 1005.9 hPa | 0 mm | 0 m/s | 416 W/m² | - |
| 1778000054 | 28.33° C | 63% | 1006 hPa | 0 mm | 0.89 m/s, 353° | 426 W/m² | - |
| 1777999749 | 28.33° C | 64% | 1006.1 hPa | 0 mm | 0.89 m/s, 343° | 424 W/m² | - |
| 1777999447 | 27.78° C | 65% | 1006.1 hPa | 0 mm | 0.45 m/s, 153° | 500 W/m² | - |
| 1777999145 | 27.22° C | 66% | 1005.9 hPa | 0 mm | 0.89 m/s, 357° | 397 W/m² | - |
| 1777998844 | 27.22° C | 66% | 1006 hPa | 0 mm | 1.79 m/s, 10° | 272 W/m² | - |
| 1777998542 | 27.22° C | 66% | 1005.8 hPa | 0 mm | 0 m/s | 318 W/m² | - |
| 1777998237 | 27.22° C | 66% | 1005.6 hPa | 0 mm | 0.89 m/s, 10° | 328 W/m² | - |
| 1777997934 | 27.22° C | 67% | 1005.9 hPa | 0 mm | 0.89 m/s, 354° | 299 W/m² | - |
| 1777997631 | 27.22° C | 67% | 1005.9 hPa | 0 mm | 0.89 m/s, 16° | 297 W/m² | - |
| 1777997329 | 26.67° C | 68% | 1005.8 hPa | 0 mm | 0.89 m/s, 119° | 355 W/m² | - |
| 1777997027 | 26.67° C | 68% | 1005.8 hPa | 0 mm | 0.89 m/s, 349° | 361 W/m² | - |
| 1777996723 | 26.67° C | 69% | 1005.8 hPa | 0 mm | 0.45 m/s, 73° | 269 W/m² | - |
| 1777996419 | 26.11° C | 70% | 1005.9 hPa | 0 mm | 1.79 m/s, 8° | 281 W/m² | - |
| 1777996116 | 26.11° C | 70% | 1005.9 hPa | 0 mm | 0.89 m/s, 14° | 254 W/m² | - |
| 1777995812 | 26.11° C | 70% | 1005.6 hPa | 0 mm | 1.34 m/s, 14° | 268 W/m² | - |
| 1777995509 | 25.56° C | 71% | 1005.9 hPa | 0 mm | 0.89 m/s, 40° | 246 W/m² | - |
| 1777995206 | 25.56° C | 72% | 1005.8 hPa | 0 mm | 0.45 m/s, 44° | 259 W/m² | - |
* Rain latest hour (hover to see other rain measurements)
** Current wind speed in m/s (hover to see current wind gust speed)